TIANQI 27 (59911 NORAD) Tracking and Keplerian Element Data

This shows tracking and keplerian element data for the satellite.

Feedback or suggestion? Click here.




ElementValue
Catalog59911
NameTIANQI 27
Epoch Orbit140
Epoch Day160.29620249
Epoch Year2024
RAAN310.6191
Inclination44.9882
Eccentricity0.001193
Argument of Perigee356.3833
Mean Anonmoly92.923
Mean Motion14.14439703
Decay Rate-0.00011515
L11 59911U 24102C 24160.29620249 -.00011515 00000+0 -59015-2 0 9997
L22 59911 44.9882 310.6191 0011930 356.3833 92.9230 14.14439703 1404



Live tracking and technical data element details for TIANQI 27 (NORAD 59911). TIANQI 27 can be tracked NOW for your location showing map with azimuth and elevation plus other details from your city location.







IsCatalogInMostPopularTable: catalog: 59911, numindb: 7
Update: records affected: 1



GetName: 59911 TIANQI 27

Hit Count: updated at: Tue, 16 Jul 2024 02:34:23 GMT